{"data":{"norad_id":64155,"epoch":"2026-05-25T03:10:04.627200Z","epoch_age_seconds":63340,"freshness":"FRESH","line1":"1 64155U 25112K   26145.13199800 -.00000121  00000+0 -43540-5 0  9997","line2":"2 64155  97.4479 196.5495 0001862 132.7456 227.3928 15.05646281 54816","mean_motion":15.05646281,"eccentricity":0.0001862,"inclination_deg":97.4479,"raan_deg":196.5495,"arg_perigee_deg":132.7456,"mean_anomaly_deg":227.3928,"bstar":-4.354e-6,"rev_number":5481,"period_min":95.639993149228,"perigee_km":548.23263151599,"apogee_km":550.81249193678,"semimajor_km":6927.6595617264,"source":"CELESTRAK","updated_at":"2026-05-25T13:38:20.304406Z"}}